Date,TemperatureHighF,TemperatureAvgF,TemperatureLowF,DewpointHighF,DewpointAvgF,DewpointLowF,HumidityHigh,HumidityAvg,HumidityLow,PressureMaxIn,PressureMinIn,WindSpeedMaxMPH,WindSpeedAvgMPH,GustSpeedMaxMPH,PrecipitationSumIn
2012-1-1,42,36,22,40,28,13,96,75,31,30.15,29.78,24,14,0,0.00
2012-1-2,22,13,7,20,11,5,94,90,79,30.03,29.82,23,15,0,0.00
2012-1-3,7,4,2,5,2,0,91,90,89,30.34,30.02,25,16,0,0.00
2012-1-4,26,14,3,21,9,1,95,82,44,30.42,30.08,24,15,0,0.00
2012-1-5,31,25,20,22,18,11,95,78,48,30.11,30.02,25,14,0,0.00
2012-1-6,48,39,31,27,22,16,71,53,35,30.08,29.92,20,14,0,0.00
2012-1-7,40,37,28,39,33,18,97,85,43,30.06,29.83,21,14,0,0.00
2012-1-8,37,29,23,24,20,10,94,71,40,30.32,30.06,14,6,0,0.00
2012-1-9,33,30,26,31,26,17,96,87,54,30.28,30.04,14,6,0,0.00
2012-1-10,35,29,23,28,23,13,96,81,40,30.10,30.01,19,11,0,0.00
2012-1-11,38,34,30,35,28,8,97,80,30,30.06,29.50,12,7,0,0.00
2012-1-12,38,35,23,37,34,18,97,97,97,29.52,29.35,18,11,0,0.00
2012-1-13,21,9,6,20,7,4,96,93,92,30.06,29.36,23,17,0,0.00
2012-1-14,16,11,7,15,10,5,95,93,92,30.22,30.06,16,10,0,0.00
2012-1-15,20,13,9,19,12,7,96,94,92,30.59,30.20,11,5,0,0.00
2012-1-16,35,24,17,22,19,16,95,82,56,30.58,30.43,16,12,0,0.00
2012-1-17,45,41,30,43,39,27,97,95,90,29.96,29.75,31,21,0,0.00
2012-1-18,29,16,9,28,14,6,96,93,88,30.15,29.80,19,10,0,0.00
2012-1-19,28,19,8,17,11,6,93,73,50,30.19,30.04,20,10,0,0.00
2012-1-20,34,26,19,27,22,11,96,86,62,30.20,30.04,18,10,0,0.00
2012-1-21,39,31,25,38,30,24,97,97,96,30.16,29.85,15,5,0,0.00
2012-1-22,31,28,24,29,27,23,97,94,90,30.29,30.15,7,4,0,0.00
2012-1-23,42,39,33,41,38,32,98,97,93,30.11,29.87,18,14,0,0.00
2012-1-24,38,33,29,37,30,27,97,88,67,30.24,29.95,22,14,0,0.00
2012-1-25,55,39,27,27,17,-18,95,51,5,30.36,30.12,18,8,0,0.00
2012-1-26,47,45,38,46,40,26,97,83,53,30.12,29.60,14,10,0,0.00
2012-1-27,48,34,22,47,33,21,97,97,96,29.97,29.44,22,16,0,0.00
2012-1-28,35,26,18,30,19,3,97,77,25,30.20,29.96,22,11,0,0.00
2012-1-29,29,21,13,20,12,8,94,70,46,30.29,30.14,25,14,0,0.00
2012-1-30,38,25,12,22,14,4,92,65,48,30.42,30.22,18,13,0,0.00
2012-1-31,51,42,36,28,22,17,59,45,30,30.36,30.11,22,14,0,0.00
2012-2-1,45,41,36,41,36,20,97,86,36,30.12,30.01,24,13,0,0.00
2012-2-2,41,35,25,40,33,24,98,92,73,30.29,29.93,17,10,0,0.00
2012-2-3,45,34,24,26,21,17,96,60,38,30.50,30.29,10,4,0,0.00
2012-2-4,41,37,35,36,30,23,97,76,58,30.34,29.97,10,6,0,0.00
2012-2-5,37,29,22,36,28,21,97,96,94,30.21,29.93,13,5,0,0.00
2012-2-6,41,29,22,30,22,11,96,76,49,30.27,30.11,17,8,0,0.00
2012-2-7,42,29,23,26,23,19,96,80,41,30.22,30.12,18,8,0,0.00
2012-2-8,32,25,19,26,22,18,96,90,71,30.21,30.07,12,5,0,0.00
2012-2-9,25,19,15,24,18,13,96,95,93,30.32,30.16,10,3,0,0.00
2012-2-10,27,21,16,26,20,15,96,95,94,30.26,29.92,11,6,0,0.00
2012-2-11,22,11,-2,21,10,-5,96,93,88,30.06,29.77,21,10,0,0.00
2012-2-12,11,4,-2,9,2,-4,93,91,89,30.35,30.05,19,15,0,0.00
2012-2-13,26,17,10,24,15,8,96,91,69,30.40,30.19,20,9,0,0.00
2012-2-14,31,28,25,29,21,11,96,75,48,30.18,29.98,13,8,0,0.00
2012-2-15,45,32,22,39,26,21,96,83,44,30.33,30.05,13,5,0,0.00
2012-2-16,38,35,31,37,33,27,97,92,70,30.27,29.98,16,10,0,0.00
2012-2-17,34,30,26,33,27,22,97,90,79,30.14,30.01,13,10,0,0.00
2012-2-18,42,35,27,26,22,19,87,62,43,30.13,30.01,19,10,0,0.00
2012-2-19,29,26,20,25,23,19,95,90,80,30.03,29.81,5,2,0,0.00
2012-2-20,37,25,17,23,18,15,95,79,42,30.35,29.97,8,3,0,0.00
2012-2-21,38,32,21,31,25,16,88,77,67,30.33,29.91,16,10,0,0.00
2012-2-22,44,35,28,35,31,25,96,84,53,29.91,29.52,21,12,0,0.00
2012-2-23,46,38,31,45,36,30,97,91,77,29.67,29.49,16,9,0,0.00
2012-2-24,50,34,20,48,32,18,96,92,80,29.63,29.36,26,20,0,0.00
2012-2-25,20,15,12,19,13,9,95,91,84,30.40,29.62,26,18,0,0.00
2012-2-26,40,25,11,16,10,4,90,58,24,30.57,30.40,19,8,0,0.00
2012-2-27,49,39,29,30,23,13,67,52,39,30.43,30.25,20,13,0,0.00
2012-2-28,56,41,26,21,6,-21,66,30,6,30.42,30.22,14,7,0,0.00
2012-2-29,53,45,39,51,41,21,97,87,48,30.22,29.64,28,15,0,0.00
2012-3-1,47,41,36,45,32,27,94,72,53,29.88,29.61,25,18,0,0.00
2012-3-2,45,40,34,43,32,23,97,78,51,29.92,29.63,19,10,0,0.00
2012-3-3,45,34,26,44,26,14,97,75,41,29.73,29.55,21,13,0,0.00
2012-3-4,26,18,16,21,17,14,95,92,76,29.96,29.68,16,11,0,0.00
2012-3-5,19,17,13,18,16,11,95,94,93,30.50,29.91,19,9,0,0.00
2012-3-6,46,29,13,20,14,3,94,59,28,30.73,30.49,14,8,0,0.00
2012-3-7,54,44,35,37,22,8,86,45,22,30.58,30.32,14,9,0,0.00
2012-3-8,54,45,40,44,41,37,96,87,67,30.32,30.01,24,13,0,0.00
2012-3-9,40,30,22,39,24,18,97,82,54,30.17,30.01,26,17,0,0.00
2012-3-10,43,36,23,15,4,-20,43,28,11,30.58,30.52,8,2,0,0.00
2012-3-11,58,46,35,26,20,-100,46,37,27,30.54,30.35,11,5,0,0.00
2012-3-12,56,48,44,47,36,20,96,66,34,30.35,30.13,10,5,0,0.00
2012-3-13,61,52,46,50,46,43,97,83,55,30.13,30.06,19,12,0,0.00
2012-3-14,67,54,46,47,42,33,93,67,31,30.21,30.10,8,5,0,0.00
2012-3-15,57,54,50,46,42,39,79,66,57,30.20,30.10,12,6,0,0.00
2012-3-16,56,50,46,52,47,42,96,88,70,30.19,30.10,14,6,0,0.00
2012-3-17,62,54,48,50,47,45,95,80,59,30.24,30.17,5,1,0,0.00
2012-3-18,61,53,48,52,48,47,97,87,65,30.24,30.14,7,3,0,0.00
2012-3-19,67,54,46,54,50,45,96,84,57,30.17,30.10,10,4,0,0.00
2012-3-20,69,57,51,52,49,-100,95,77,47,30.17,30.09,8,2,0,0.00
2012-3-21,63,55,50,54,50,45,96,84,64,30.21,30.13,8,2,0,0.00
2012-3-22,73,59,51,52,47,-100,97,71,33,30.20,30.07,11,-3,0,0.00
2012-3-23,70,62,55,51,47,45,87,58,41,30.08,29.83,7,2,0,0.00
2012-3-24,55,48,43,52,46,41,96,93,75,29.84,29.75,14,5,0,0.00
2012-3-25,49,45,43,47,44,42,97,95,91,29.88,29.74,10,4,0,0.00
2012-3-26,48,40,26,43,31,16,97,75,38,30.13,29.87,15,10,0,0.00
2012-3-27,58,40,20,19,6,-20,78,29,9,30.34,30.12,12,4,0,0.00
2012-3-28,64,54,47,51,40,16,95,62,26,30.19,29.72,26,13,0,0.00
2012-3-29,54,45,37,40,33,28,92,65,39,29.99,29.73,0,0,0,0.00
2012-3-30,58,48,42,50,40,31,95,73,57,29.99,29.80,0,0,0,0.00
2012-3-31,53,47,38,47,44,37,96,89,67,29.83,29.72,0,0,0,0.00
2012-4-1,59,46,34,46,33,15,96,64,32,29.85,29.65,0,0,0,0.00
2012-4-2,55,45,36,47,29,12,97,60,20,29.96,29.59,0,0,0,0.00
2012-4-3,68,56,41,52,8,-49,100,23,1,30.00,29.80,0,0,0,0.00
2012-4-4,64,53,44,52,47,41,96,81,58,29.81,29.61,0,0,0,0.00
2012-4-5,54,44,34,42,28,16,93,56,27,29.81,29.64,0,0,0,0.00
2012-4-6,43,36,29,26,20,10,75,56,28,30.15,29.80,0,0,0,0.00
2012-4-7,50,38,28,16,11,7,48,34,19,30.29,30.15,0,0,0,0.00
2012-4-8,52,43,36,29,19,10,51,39,30,30.18,29.96,0,0,0,0.00
2012-4-9,48,40,34,33,22,16,74,50,37,29.97,29.81,0,0,0,0.00
2012-4-10,45,38,27,23,17,6,83,45,21,29.88,29.75,0,0,0,0.00
2012-4-11,26,22,19,24,21,17,95,94,88,30.23,29.83,0,0,0,0.00
2012-4-12,42,30,23,28,24,22,96,80,50,30.33,30.20,0,0,0,0.00
2012-4-13,54,42,33,26,24,22,69,49,29,30.29,30.23,0,0,0,0.00
2012-4-14,62,49,41,44,32,22,82,53,41,30.25,30.09,0,0,0,0.00
2012-4-15,73,58,51,50,42,-100,77,60,31,30.11,30.02,0,0,0,0.00
2012-4-16,74,62,55,52,48,37,83,63,31,30.01,29.93,0,0,0,0.00
2012-4-17,55,48,41,50,37,26,94,68,42,30.21,30.00,0,0,0,0.00
2012-4-18,45,40,38,40,37,29,97,90,55,30.19,30.09,0,0,0,0.00
2012-4-19,57,45,39,47,41,38,97,90,65,30.14,30.02,0,0,0,0.00
2012-4-20,67,53,40,48,42,34,96,70,36,30.02,29.77,0,0,0,0.00
2012-4-21,57,47,39,50,44,38,97,91,67,29.77,29.67,0,0,0,0.00
2012-4-22,39,35,29,38,33,-100,97,97,97,29.75,29.54,0,0,0,0.00
2012-4-23,29,26,25,28,25,23,97,96,85,29.68,29.45,0,0,0,0.00
2012-4-24,42,32,23,23,20,16,86,62,35,29.82,29.60,0,0,0,0.00
2012-4-25,54,42,32,41,27,21,87,59,30,29.93,29.81,0,0,0,0.00
2012-4-26,54,48,43,51,46,41,97,95,82,29.88,29.67,0,0,0,0.00
2012-4-27,47,39,30,42,30,24,97,73,40,30.19,29.78,0,0,0,0.00
2012-4-28,50,42,34,48,34,4,96,77,19,30.23,30.08,0,0,0,0.00
2012-4-29,64,53,46,50,46,-100,97,79,56,30.20,30.09,0,0,0,0.00
2012-4-30,72,58,51,59,53,39,97,83,60,30.15,29.96,0,0,0,0.00
2012-5-1,66,58,52,56,54,51,97,86,68,30.03,29.91,0,0,0,0.00
2012-5-2,73,61,51,58,54,50,96,80,56,30.06,29.94,0,0,0,0.00
2012-5-3,78,67,60,59,55,50,85,68,44,30.07,29.96,0,0,0,0.00
2012-5-4,63,59,53,58,54,48,95,85,59,29.99,29.87,0,0,0,0.00
2012-5-5,58,55,54,56,54,53,96,95,91,29.96,29.84,0,0,0,0.00
2012-5-6,73,59,52,57,53,-100,96,83,46,30.02,29.91,0,0,0,0.00
2012-5-7,66,57,52,58,54,51,96,91,73,29.94,29.84,0,0,0,0.00
2012-5-8,56,53,51,55,52,50,97,96,96,29.89,29.78,0,0,0,0.00
2012-5-9,54,46,41,53,45,39,97,94,77,29.81,29.68,0,0,0,0.00
2012-5-10,49,41,37,41,36,30,97,82,54,30.00,29.68,0,0,0,0.00
2012-5-11,58,45,35,33,29,21,83,56,31,30.26,30.00,0,0,0,0.00
2012-5-12,65,53,43,47,37,28,83,56,41,30.31,30.19,0,0,0,0.00
2012-5-13,63,53,49,52,48,-100,95,84,57,30.20,30.04,0,0,0,0.00
2012-5-14,53,51,48,52,50,47,97,96,95,30.04,29.93,0,0,0,0.00
2012-5-15,59,53,50,54,51,46,97,92,76,29.99,29.92,0,0,0,0.00
2012-5-16,66,55,49,52,47,44,96,77,46,29.97,29.90,0,0,0,0.00
2012-5-17,67,57,49,55,50,45,95,78,56,30.03,29.93,0,0,0,0.00
2012-5-18,66,56,47,54,49,45,94,79,54,30.09,30.01,0,0,0,0.00
2012-5-19,67,59,50,50,45,40,80,61,38,30.11,30.05,0,0,0,0.00
2012-5-20,67,59,53,49,44,-100,80,59,43,30.13,30.01,0,0,0,0.00
2012-5-21,72,59,50,56,49,42,86,72,46,30.01,29.84,0,0,0,0.00
2012-5-22,64,56,51,56,49,41,89,78,66,29.86,29.79,0,0,0,0.00
2012-5-23,63,55,51,56,48,41,89,77,66,29.93,29.82,0,0,0,0.00
2012-5-24,59,56,53,56,48,42,90,76,66,30.04,29.92,0,0,0,0.00
2012-5-25,76,65,55,58,53,45,90,66,51,30.12,30.04,0,0,0,0.00
2012-5-26,74,66,61,64,60,57,89,82,69,30.10,30.04,0,0,0,0.00
2012-5-27,78,67,61,64,61,57,89,82,60,30.08,29.97,0,0,0,0.00
2012-5-28,79,67,58,63,57,47,90,71,51,30.04,29.90,0,0,0,0.00
2012-5-29,73,62,57,63,56,47,90,82,63,29.91,29.73,0,0,0,0.00
2012-5-30,69,60,53,57,50,44,91,71,42,29.80,29.74,0,0,0,0.00
2012-5-31,73,61,51,53,46,39,90,61,31,29.85,29.74,0,0,0,0.00
2012-6-1,59,53,43,55,46,38,90,77,66,29.81,29.58,0,0,0,0.00
2012-6-2,54,45,38,42,39,35,92,80,61,29.92,29.70,0,0,0,0.00
2012-6-3,59,50,42,50,43,-100,91,81,59,29.92,29.80,0,0,0,0.00
2012-6-4,60,51,45,49,45,41,90,79,55,29.81,29.67,0,0,0,0.00
2012-6-5,54,47,41,48,41,33,91,80,63,29.91,29.74,0,0,0,0.00
2012-6-6,53,46,43,49,40,34,91,78,69,30.04,29.90,0,0,0,0.00
2012-6-7,62,52,45,48,45,39,91,76,57,30.08,30.01,0,0,0,0.00
2012-6-8,68,56,48,49,45,41,84,67,45,30.07,29.99,0,0,0,0.00
2012-6-9,71,61,54,52,48,44,74,62,44,30.04,29.98,0,0,0,0.00
2012-6-10,73,64,56,57,51,-100,81,65,47,30.07,30.00,0,0,0,0.00
2012-6-11,61,58,56,54,50,46,89,73,64,30.05,29.98,0,0,0,0.00
2012-6-12,71,62,58,63,53,47,91,75,67,29.98,29.83,0,0,0,0.00
2012-6-13,64,57,50,53,47,37,91,69,40,30.04,29.88,0,0,0,0.00
2012-6-14,65,56,46,52,47,39,90,73,50,30.15,30.03,0,0,0,0.00
2012-6-15,64,56,51,53,49,42,91,76,64,30.22,30.12,0,0,0,0.00
2012-6-16,66,57,48,52,48,43,91,75,55,30.27,30.13,0,0,0,0.00
2012-6-17,71,57,50,59,51,-100,91,83,67,30.14,29.97,0,0,0,0.00
2012-6-18,69,60,56,61,52,46,91,77,68,30.06,29.94,0,0,0,0.00
2012-6-19,77,67,60,62,59,50,91,76,59,30.13,30.05,0,0,0,0.00
2012-6-20,78,70,63,64,61,58,87,75,54,30.12,30.01,0,0,0,0.00
2012-6-21,76,69,62,67,62,58,90,80,63,30.01,29.83,0,0,0,0.00
2012-6-22,75,64,58,63,59,54,90,82,54,29.88,29.78,0,0,0,0.00
2012-6-23,72,63,55,55,52,49,91,68,47,30.01,29.85,0,0,0,0.00
2012-6-24,76,66,58,56,51,48,74,60,44,30.01,29.87,0,0,0,0.00
2012-6-25,67,60,49,58,51,42,89,72,56,29.87,29.72,0,0,0,0.00
2012-6-26,59,50,41,44,41,38,90,73,56,29.97,29.80,0,0,0,0.00
2012-6-27,70,58,49,49,46,41,81,65,45,30.03,29.93,0,0,0,0.00
2012-6-28,81,68,57,62,52,46,72,58,37,29.98,29.82,0,0,0,0.00
2012-6-29,86,75,68,68,62,55,77,64,51,29.85,29.70,0,0,0,0.00
2012-7-5,78,70,64,65,62,60,89,77,57,29.89,29.83,0,0,0,0.00
2012-7-6,82,71,64,67,63,56,89,76,54,29.93,29.88,0,0,0,0.00
2012-7-7,83,74,68,68,65,62,89,72,51,29.93,29.85,0,0,0,0.00
2012-7-8,85,74,65,67,64,56,88,72,49,29.88,29.77,0,0,0,0.00
2012-7-9,67,63,61,62,55,51,91,74,67,29.96,29.80,0,0,0,0.00
2012-7-10,73,65,58,57,54,49,90,69,48,30.01,29.93,0,0,0,0.00
2012-7-11,71,63,59,59,56,54,90,79,58,30.09,29.98,0,0,0,0.00
2012-7-12,71,62,55,54,50,46,89,67,42,30.15,30.08,0,0,0,0.00
2012-7-13,60,54,51,55,50,44,91,84,70,30.21,30.12,0,0,0,0.00
2012-7-14,78,65,60,67,57,50,91,77,63,30.22,30.09,0,0,0,0.00
2012-7-15,77,66,61,65,61,56,91,84,61,30.13,30.00,0,0,0,0.00
2012-7-16,75,66,59,65,57,51,90,74,63,30.04,29.90,0,0,0,0.00
2012-7-17,82,70,63,65,60,53,90,70,42,29.96,29.84,0,0,0,0.00
2012-7-18,81,68,60,68,61,52,90,80,62,29.93,29.83,0,0,0,0.00
2012-7-19,79,66,60,67,59,54,90,79,59,29.96,29.83,0,0,0,0.00
2012-7-20,65,62,60,59,53,50,90,74,68,29.92,29.83,0,0,0,0.00
2012-7-21,71,63,60,64,55,49,90,75,67,30.05,29.90,0,0,0,0.00
2012-7-22,76,66,58,61,55,48,90,70,49,30.11,30.03,0,0,0,0.00
2012-7-23,71,64,61,66,58,52,90,80,65,30.10,29.96,0,0,0,0.00
2012-7-24,67,64,59,60,53,48,85,68,65,29.96,29.79,0,0,0,0.00
2012-7-25,76,66,55,62,53,45,88,65,43,29.95,29.85,0,0,0,0.00
2012-7-26,81,70,60,67,62,53,89,75,59,29.85,29.68,0,0,0,0.00
2012-7-27,68,62,58,64,54,47,90,75,65,29.93,29.75,0,0,0,0.00
2012-7-28,71,62,58,60,55,47,90,77,63,29.97,29.89,0,0,0,0.00
2012-7-29,70,60,55,59,52,44,90,76,64,30.03,29.94,0,0,0,0.00
2012-7-30,75,64,58,62,57,50,90,79,56,30.03,29.92,0,0,0,0.00
2012-7-31,72,63,56,64,56,47,90,79,65,29.95,29.82,0,0,0,0.00
2012-8-1,74,65,59,63,59,53,90,81,62,29.89,29.81,0,0,0,0.00
2012-8-2,79,68,60,64,59,51,89,74,47,29.90,29.82,0,0,0,0.00
2012-8-3,78,69,64,65,61,57,89,77,56,29.98,29.87,0,0,0,0.00
2012-8-4,73,66,62,65,59,51,89,80,64,30.11,29.98,0,0,0,0.00
2012-8-5,68,65,60,65,60,54,90,84,72,30.11,30.02,0,0,0,0.00
2012-8-6,70,64,60,65,55,48,89,74,63,30.08,29.99,0,0,0,0.00
2012-8-7,73,65,60,64,59,50,90,80,64,30.00,29.92,0,0,0,0.00
2012-8-8,77,66,59,60,56,52,89,72,43,29.97,29.91,0,0,0,0.00
2012-8-9,78,68,59,63,59,53,90,73,52,29.92,29.73,0,0,0,0.00
2012-8-10,69,61,57,63,55,46,90,82,64,29.77,29.65,0,0,0,0.00
2012-8-11,67,58,51,54,49,40,90,75,51,29.94,29.76,0,0,0,0.00
2012-8-12,66,56,50,53,48,39,90,73,53,30.04,29.93,0,0,0,0.00
2012-8-13,72,61,53,58,53,48,89,75,49,30.04,29.92,0,0,0,0.00
2012-8-14,70,62,57,62,56,49,90,82,69,29.91,29.79,0,0,0,0.00
2012-8-15,62,58,55,58,50,44,90,75,64,29.97,29.84,0,0,0,0.00
2012-8-16,71,61,53,57,52,42,91,73,56,30.03,29.91,0,0,0,0.00
2012-8-17,68,60,55,60,52,43,89,76,65,29.93,29.81,0,0,0,0.00
2012-8-18,68,58,51,56,51,41,91,79,60,29.92,29.85,0,0,0,0.00
2012-8-19,60,55,51,55,50,42,90,84,71,29.91,29.84,0,0,0,0.00
2012-8-20,65,57,52,55,50,43,90,81,63,29.96,29.84,0,0,0,0.00
2012-8-21,69,59,52,51,48,45,90,70,45,30.07,29.96,0,0,0,0.00
2012-8-22,70,61,54,55,52,47,90,73,52,30.11,30.03,0,0,0,0.00
2012-8-23,73,60,56,58,54,49,89,80,56,30.13,30.09,0,0,0,0.00
2012-8-24,70,62,56,59,56,51,89,80,60,30.14,30.08,0,0,0,0.00
2012-8-25,64,58,54,56,52,45,90,84,68,30.14,30.09,0,0,0,0.00
2012-8-26,72,59,55,61,50,43,88,73,64,30.18,30.09,0,0,0,0.00
2012-8-27,77,66,56,60,54,44,89,69,46,30.13,29.96,0,0,0,0.00
2012-8-28,72,63,59,61,54,47,89,73,57,29.97,29.90,0,0,0,0.00
2012-8-29,70,62,57,55,53,51,86,74,52,30.00,29.91,0,0,0,0.00
2012-8-30,76,65,56,60,56,52,89,73,50,30.08,29.98,0,0,0,0.00
2012-8-31,75,66,62,65,59,49,89,77,62,30.14,30.05,0,0,0,0.00
2012-9-1,72,65,63,66,55,50,90,73,62,30.11,30.01,0,0,0,0.00
2012-9-2,77,67,62,66,61,51,90,81,63,30.03,29.88,0,0,0,0.00
2012-9-3,72,64,61,66,55,49,90,73,63,29.97,29.88,0,0,0,0.00
2012-9-4,70,63,61,66,54,48,90,72,63,29.95,29.83,0,0,0,0.00
2012-9-5,75,66,61,67,57,49,90,73,63,29.86,29.78,0,0,0,0.00
2012-9-6,77,66,61,63,58,45,90,78,50,29.90,29.80,0,0,0,0.00
2012-9-7,77,66,58,62,56,46,90,70,54,29.93,29.76,0,0,0,0.00
2012-9-8,63,56,44,60,46,34,91,71,64,29.84,29.59,0,0,0,0.00
2012-9-9,58,49,44,49,43,35,91,78,60,30.02,29.83,0,0,0,0.00
2012-9-10,57,49,43,45,41,33,91,76,42,30.21,30.01,0,0,0,0.00
2012-9-11,66,54,44,48,43,37,83,67,48,30.31,30.21,0,0,0,0.00
2012-9-12,69,59,51,55,50,47,90,75,51,30.31,30.24,0,0,0,0.00
2012-9-13,69,59,53,55,50,45,85,73,45,30.29,30.21,0,0,0,0.00
2012-9-14,71,59,52,53,49,43,89,69,45,30.24,30.12,0,0,0,0.00
2012-9-15,62,54,48,50,44,41,88,70,48,30.17,30.10,0,0,0,0.00
2012-9-16,63,53,48,53,48,41,91,81,66,30.14,30.04,0,0,0,0.00
2012-9-17,65,56,52,57,50,43,89,81,66,30.06,29.86,0,0,0,0.00
2012-9-18,58,54,44,47,43,34,69,66,65,29.87,29.59,0,0,0,0.00
2012-9-19,55,45,37,41,35,28,90,69,50,30.15,29.83,0,0,0,0.00
2012-9-20,64,53,44,52,45,35,91,74,63,30.14,30.04,0,0,0,0.00
2012-9-21,67,57,50,54,48,41,92,75,51,30.04,29.88,0,0,0,0.00
2012-9-22,62,55,45,53,49,38,91,81,62,29.94,29.79,0,0,0,0.00
2012-9-23,51,40,32,39,31,-100,92,72,46,30.20,29.93,0,0,0,0.00
2012-9-24,55,43,34,35,32,26,92,68,34,30.27,30.16,0,0,0,0.00
2012-9-25,62,49,43,50,38,25,91,65,38,30.19,30.07,0,0,0,0.00
2012-9-26,66,58,51,57,52,44,91,82,70,30.14,30.08,0,0,0,0.00
2012-9-27,66,59,55,57,54,51,91,84,61,30.14,30.04,0,0,0,0.00
2012-9-28,56,53,50,53,43,39,90,68,66,30.04,29.97,0,0,0,0.00
2012-9-29,56,47,42,45,40,36,93,78,63,29.99,29.90,0,0,0,0.00
2012-9-30,55,46,40,44,41,37,92,83,58,29.93,29.85,0,0,0,0.00
2012-10-1,51,48,45,46,41,36,91,79,66,29.91,29.86,0,0,0,0.00
2012-10-2,62,58,50,51,46,39,68,66,63,29.91,29.85,0,0,0,0.00
2012-10-3,71,60,54,59,52,43,91,76,63,30.10,29.91,0,0,0,0.00
2012-10-4,61,55,49,54,47,40,91,75,61,30.15,30.07,0,0,0,0.00
2012-10-5,65,54,49,52,48,43,91,79,57,30.16,29.93,0,0,0,0.00
2012-10-6,53,46,35,50,40,30,92,81,66,30.03,29.81,0,0,0,0.00
2012-10-7,36,34,30,34,28,22,92,80,70,30.19,29.98,0,0,0,0.00
2012-10-8,38,32,29,34,27,22,92,81,66,30.29,30.18,0,0,0,0.00
2012-10-9,51,40,35,43,34,27,91,79,69,30.22,30.06,0,0,0,0.00
2012-10-10,46,39,34,42,36,30,92,86,73,30.10,29.94,0,0,0,0.00
2012-10-11,57,40,26,31,22,2,92,55,17,30.31,30.10,0,0,0,0.00
2012-10-12,50,41,36,38,33,30,91,74,55,30.36,30.14,0,0,0,0.00
2012-10-13,56,43,32,40,36,30,92,78,53,30.42,30.26,0,0,0,0.00
2012-10-14,66,54,44,52,47,40,90,78,56,30.26,29.86,0,0,0,0.00
2012-10-15,51,46,36,47,39,31,92,76,66,29.87,29.69,0,0,0,0.00
2012-10-16,51,40,34,37,32,27,92,74,45,29.96,29.80,0,0,0,0.00
2012-10-17,59,48,42,41,30,18,86,52,27,29.96,29.80,0,0,0,0.00
2012-10-18,49,44,40,46,40,34,92,85,71,29.82,29.72,0,0,0,0.00
2012-10-19,53,46,40,42,35,28,92,66,43,29.82,29.64,0,0,0,0.00
2012-10-20,42,37,34,35,32,30,92,84,67,29.98,29.67,0,0,0,0.00
2012-10-21,48,39,33,36,32,27,92,77,54,30.20,29.98,0,0,0,0.00
2012-10-22,63,50,40,47,41,33,88,72,50,30.25,30.16,0,0,0,0.00
2012-10-23,64,58,53,51,49,46,83,73,58,30.16,30.03,0,0,0,0.00
2012-10-24,67,58,52,49,47,44,83,67,45,30.12,30.05,0,0,0,0.00
2012-10-25,67,60,54,47,44,41,70,57,40,30.10,30.02,0,0,0,0.00
2012-10-26,65,55,49,53,48,44,91,79,51,30.07,29.94,0,0,0,0.00
2012-10-27,52,47,41,46,38,31,88,70,66,29.94,29.82,0,0,0,0.00
2012-10-28,41,38,31,33,29,23,72,71,69,29.84,29.71,0,0,0,0.00
2012-10-29,31,27,25,23,22,21,89,83,72,29.73,29.15,0,0,0,0.00
2012-10-30,25,25,25,22,22,22,89,89,89,29.15,29.11,0,0,0,0.00
2012-11-21,45,41,37,25,19,-100,61,44,30,30.20,30.14,0,0,0,0.00
2012-11-22,54,44,36,25,23,17,61,45,31,30.25,30.11,0,0,0,0.00
2012-11-23,50,39,22,41,30,18,92,73,35,30.11,29.80,0,0,0,0.00
2012-11-24,22,15,13,20,13,11,92,92,91,30.15,29.81,0,0,0,0.00
2012-11-25,34,23,13,21,13,9,92,71,37,30.17,30.08,0,0,0,0.00
2012-11-26,42,34,28,31,22,15,91,64,41,30.22,30.11,0,0,0,0.00
2012-11-27,32,29,23,29,23,21,90,79,72,30.23,30.10,0,0,0,0.00
2012-11-28,24,21,19,22,19,17,93,92,89,30.45,30.22,0,0,0,0.00
2012-11-29,39,28,19,20,13,2,93,61,24,30.53,30.41,0,0,0,0.00
2012-11-30,47,38,34,31,24,11,68,57,35,30.41,30.26,0,0,0,0.00
2012-12-1,48,40,35,39,34,25,91,78,59,30.36,30.27,0,0,0,0.00
2012-12-2,52,44,38,43,38,35,91,80,67,30.32,30.15,0,0,0,0.00
2012-12-3,50,48,45,46,38,35,91,70,65,30.26,30.20,0,0,0,0.00
2012-12-4,55,49,46,48,46,43,91,87,73,30.22,30.02,0,0,0,0.00
2012-12-5,47,35,27,44,28,15,92,79,46,30.24,30.01,0,0,0,0.00
2012-12-6,44,38,34,37,19,-100,91,52,14,30.27,30.11,0,0,0,0.00
2012-12-7,48,44,41,45,38,31,92,80,67,30.11,29.91,0,0,0,0.00
2012-12-8,49,46,44,46,40,34,92,80,67,29.92,29.87,0,0,0,0.00
2012-12-9,48,47,46,37,36,36,68,67,66,30.05,29.96,0,0,0,0.00
2012-12-14,43,38,36,14,7,-5,40,27,15,30.29,30.25,0,0,0,0.00
2012-12-15,45,40,34,33,15,1,88,39,18,30.25,29.98,0,0,0,0.00
2012-12-16,46,42,35,43,34,28,91,72,67,29.98,29.79,0,0,0,0.00
2012-12-17,47,41,36,41,37,27,92,85,69,29.80,29.53,0,0,0,0.00
2012-12-18,36,30,24,28,24,21,93,78,70,29.85,29.54,0,0,0,0.00
2012-12-19,36,32,26,31,29,24,93,89,81,30.16,29.83,0,0,0,0.00